Location: Plainartige
(45.6866°N, 1.7993°E)
Time: 19:33:17
(UTC+00:00)

RS-15 - Pass Details

Date: 02 July 2022
Orbit: 1881 x 2163 km, 64.8° (Epoch: 19 August)

Event Time Altitude Azimuth Distance (km) Brightness Sun altitude
Rises 20:16:32 0° 306° (NW) 5,673 13.3 -5.1°
Reaches altitude 10° 20:20:34 10° 316° (NW) 4,683 11.9 -5.6°
Maximum altitude 20:31:40 36° 20° (NNE) 3,073 9.3 -7.0°
Drops below altitude 10° 20:42:36 10° 84° (E) 4,624 9.6 -8.4°
Sets 20:46:32 0° 93° (E) 5,595 10.0 -8.9°
